Powrót do katalogu

DELTA 1 DEB

LostLEO
NORAD 42581·DEBRIS·🇺🇸 United States

Wystrzelony Nov 6, 1973 z Vandenberg Space Force Base

Loading…

Następne Przeloty (najbliższe 24 godziny)

TLE

NieaktualneSource: Space-Track

Epoka: Sep 15, 2025, 23:48 UTC

1 42581U 73086HV  25258.99200970  .00000425  00000-0  23727-2 0  9996
2 42581 102.1769 152.5685 0066133 251.5910 107.7971 12.69911882185106

Śledź DELTA 1 DEB w czasie rzeczywistym z AllMySat

Download on the App Store